Regional Weather Roundup
Issued by NWS Jackson, KY

Home | Current Version | Previous Version | Graphics & Text | Print | Product List | Glossary On
Versions: 1 2 3 4 5 6 7 8 9 10 11 12 13 14 15 16 17 18 19 20 21 22 23 24 25 26 27 28 29 30 31 32 33 34 35 36 37 38 39 40 41 42 43 44 45 46 47 48 49 50
000
ASUS43 KJKL 021410
RWRJKL

EAST KENTUCKY HOURLY WEATHER ROUNDUP
NATIONAL WEATHER SERVICE JACKSON KY
900 AM EST MON MAR 02 2015

NOTE: "FAIR" INDICATES FEW OR NO CLOUDS BELOW 12,000 FEET WITH
NO SIGNIFICANT WEATHER AND/OR OBSTRUCTIONS TO VISIBILITY.

* THESE REPORTS ARE NOT UNDER NWS QUALITY CONTROL AND MAY NOT
  REPORT WEATHER SUCH AS PRECIPITATION AND FOG.

KYZ079-080-083-085-087-088-110-112-115-119-120-021500
...EASTERN KENTUCKY...

CITY           SKY/WX    TMP DP  RH WIND       PRES   REMARKS
JACKSON        PTSUNNY   31  26  82 N6        30.46R WCI  25
LONDON         CLOUDY    33  27  78 NE8       30.46R WCI  26
SOMERSET*      CLOUDY    32  28  86 NE9       30.50R WCI  24
MONTICELLO*    CLOUDY    33  30  89 N7        30.51R WCI  27
MIDDLESBORO*   CLOUDY    34  32  91 NW8       30.45R WCI  28
HAZARD APT*    PTSUNNY   32  32 100 CALM      30.47R
BLACK MTN*       N/A     27  27 100 VRB7        N/A  WCI  19
PIKEVILLE APT* CLOUDY    30  30 100 N3        30.45R FOG
BIG SANDY*     PTSUNNY   33  30  86 N6        30.46R WCI  28
MOREHEAD APT*  SUNNY     27  19  74 CALM      30.52R
$$

KYZ035-036-041-042-044-050-067-078-099-021500
...CENTRAL KENTUCKY...

CITY           SKY/WX    TMP DP  RH WIND       PRES   REMARKS
MT STERLING*   SUNNY     28  23  80 NE3       30.52R
FLEMING/MASON* SUNNY     25  18  74 CALM      30.52R
DANVILLE*      MOSUNNY   28  21  74 N8        30.52R WCI  20
RICHMOND*      CLOUDY    28  21  74 N9        30.50R WCI  20
LEXINGTON      SUNNY     26  18  71 N8        30.51R WCI  18
FRANKFORT      SUNNY     27  18  69 N6        30.50R WCI  20
$$

KYZ091>093-OHZ055-061-077-WVZ005-015-034-035-042-021500
...SOUTHERN OHIO/WEST VIRGINIA...

CITY           SKY/WX    TMP DP  RH WIND       PRES   REMARKS
COVINGTON      PTSUNNY   23  14  68 N5        30.50R WCI  17
COLUMBUS       CLOUDY    19  13  77 W6        30.48R HAZE    WCI  11
DAYTON         PTSUNNY   17  12  80 W3        30.49R HAZE
WILMINGTON     MOSUNNY   20  13  74 NW5       30.48R WCI  13
HUNTINGTON     PTSUNNY   30  22  72 N7        30.49R WCI  23
CHARLESTON     PTSUNNY   32  24  72 NW9       30.46R WCI  24
PINEVILLE*     MIX PCPN  34  34  99 MISG      30.45R
BECKLEY        MIX PCPN  30  26  85 NW14      30.35R FOG     WCI  19
BLUEFIELD      LGT SNOW  34  30  85 NW13G22   30.32R FOG     WCI  25
$$

VAZ002-007-008-TNZ017-027-036-066-071-021500
...SOUTHWEST VIRGINIA/EAST TENNESSEE...

CITY           SKY/WX    TMP DP  RH WIND       PRES   REMARKS
WISE*          LGT SNOW  32  32 100 NW10      30.38R WCI  24
JONESVILLE*    CLOUDY    37  34  87 CALM      30.43R
ABINGDON*      CLOUDY    39  35  83 N9        30.36R WCI  33
BRISTOL        CLOUDY    41  40  96 N3        30.38R FOG
KNOXVILLE      CLOUDY    41  37  86 NE9       30.42R
OAK RIDGE      CLOUDY    41  36  82 VRB5      30.44R
CROSSVILLE     CLOUDY    33  31  92 NE9       30.39S FOG     WCI  25
NASHVILLE      CLOUDY    33  29  85 N13       30.49R WCI  24
$$

...KEY TO REMARKS...
VSB - VISIBILITY IN MILES
WCI - WIND CHILL INDEX
HX  - HEAT INDEX

$$


USA.gov is the U.S. government's official web portal to all federal, state and local government web resources and services.